| time (UTC) | temp C | wind direction | speed KPH | gust KPH | rain 1hr cm | rain 24hr cm | rain mn cm | humidity % | barometer mb |
| 20260506105931 | 14 | 191 | 4.8 | 9.7 | 0.00 | 0.05 | 0.00 | 82 | 1012.2 |
| 20260506103931 | 14 | 239 | 3.2 | 6.4 | 0.00 | 0.05 | 0.00 | 83 | 1012.0 |
| 20260506102931 | 13 | 238 | 4.8 | 8.0 | 0.00 | 0.05 | 0.00 | 84 | 1012.0 |
| 20260506101030 | 13 | 222 | 8.0 | 16.1 | 0.00 | 0.05 | 0.00 | 84 | 1012.1 |
| 20260506100051 | 13 | 225 | 4.8 | 8.0 | 0.00 | 0.05 | 0.00 | 84 | 1011.9 |
| 20260506095946 | 13 | 192 | 4.8 | 8.0 | 0.00 | 0.05 | 0.00 | 84 | 1011.8 |
| 20260506095030 | 13 | 221 | 3.2 | 6.4 | 0.00 | 0.05 | 0.00 | 83 | 1011.9 |
| 20260506094032 | 13 | 218 | 6.4 | 14.5 | 0.00 | 0.05 | 0.00 | 83 | 1011.7 |
| 20260506093129 | 13 | 226 | 6.4 | 16.1 | 0.00 | 0.05 | 0.00 | 83 | 1012.0 |
| 20260506092130 | 13 | 209 | 6.4 | 16.1 | 0.00 | 0.05 | 0.00 | 83 | 1011.8 |
| 20260506091130 | 13 | 205 | 4.8 | 12.9 | 0.00 | 0.05 | 0.00 | 83 | 1011.8 |
| 20260506090131 | 13 | 157 | 6.4 | 11.3 | 0.00 | 0.05 | 0.00 | 82 | 1011.8 |
| 20260506084230 | 13 | 240 | 4.8 | 11.3 | 0.00 | 0.05 | 0.00 | 82 | 1011.9 |
| 20260506084128 | 13 | 216 | 3.2 | 4.8 | 0.00 | 0.05 | 0.00 | 81 | 1011.9 |
| 20260506083131 | 13 | 232 | 1.6 | 6.4 | 0.00 | 0.05 | 0.00 | 81 | 1012.0 |
| 20260506082131 | 13 | 247 | 1.6 | 6.4 | 0.00 | 0.05 | 0.00 | 80 | 1012.1 |
| 20260506081129 | 13 | 221 | 1.6 | 8.0 | 0.00 | 0.05 | 0.00 | 78 | 1012.0 |
| 20260506081029 | 13 | 214 | 1.6 | 8.0 | 0.00 | 0.05 | 0.00 | 79 | 1012.1 |
| 20260506072031 | 15 | 219 | 1.6 | 4.8 | 0.00 | 0.05 | 0.00 | 75 | 1012.2 |
| 20260506071030 | 15 | 236 | 4.8 | 9.7 | 0.00 | 0.05 | 0.00 | 73 | 1012.3 |
| 20260506062045 | 16 | 214 | 9.7 | 16.1 | 0.00 | 0.05 | 0.00 | 72 | 1012.0 |
| 20260506061030 | 15 | 214 | 3.2 | 16.1 | 0.00 | 0.05 | 0.00 | 72 | 1011.9 |
| 20260506050929 | 16 | 205 | 9.7 | 17.7 | 0.00 | 0.05 | 0.00 | 69 | 1012.1 |
| 20260506044831 | 16 | 202 | 3.2 | 8.0 | 0.00 | 0.05 | 0.00 | 69 | 1012.1 |
| 20260506043928 | 16 | 219 | 6.4 | 11.3 | 0.00 | 0.05 | 0.00 | 70 | 1012.4 |
| 20260506042945 | 16 | 186 | 3.2 | 11.3 | 0.00 | 0.05 | 0.00 | 71 | 1012.4 |
| 20260506042830 | 16 | 178 | 3.2 | 8.0 | 0.00 | 0.05 | 0.00 | 71 | 1012.4 |
| 20260506041829 | 16 | 187 | 8.0 | 12.9 | 0.00 | 0.05 | 0.00 | 72 | 1012.4 |
| 20260506040831 | 16 | 248 | 6.4 | 8.0 | 0.00 | 0.05 | 0.00 | 72 | 1012.5 |
| 20260506040728 | 16 | 230 | 1.6 | 4.8 | 0.00 | 0.05 | 0.00 | 73 | 1012.4 |
| 20260506035735 | 16 | 229 | 4.8 | 8.0 | 0.00 | 0.05 | 0.05 | 74 | 1012.3 |
| 20260506035636 | 16 | 210 | 3.2 | 6.4 | 0.00 | 0.05 | 0.05 | 75 | 1012.3 |
| 20260506034734 | 15 | 228 | 4.8 | 6.4 | 0.00 | 0.05 | 0.05 | 78 | 1012.3 |
| 20260506033735 | 15 | 210 | 6.4 | 9.7 | 0.00 | 0.05 | 0.05 | 81 | 1012.4 |
| 20260506031834 | 15 | 176 | 3.2 | 8.0 | 0.00 | 0.05 | 0.05 | 83 | 1012.1 |
| 20260506031735 | 15 | 193 | 3.2 | 6.4 | 0.00 | 0.05 | 0.05 | 83 | 1012.2 |
| 20260506030752 | 15 | 220 | 3.2 | 8.0 | 0.00 | 0.05 | 0.05 | 85 | 1012.3 |
| 20260506025833 | 15 | 247 | 1.6 | 4.8 | 0.00 | 0.05 | 0.05 | 86 | 1012.3 |
| 20260506024850 | 15 | 196 | 3.2 | 4.8 | 0.00 | 0.05 | 0.05 | 88 | 1012.3 |
| 20260506023934 | 15 | 212 | 3.2 | 4.8 | 0.00 | 0.05 | 0.05 | 88 | 1012.5 |
| 20260506023835 | 15 | 239 | 3.2 | 3.2 | 0.00 | 0.05 | 0.05 | 88 | 1012.5 |
| 20260506021835 | 15 | 199 | 1.6 | 4.8 | 0.00 | 0.05 | 0.05 | 89 | 1012.1 |
| 20260506020836 | 15 | 157 | 0.0 | 1.6 | 0.00 | 0.05 | 0.05 | 88 | 1012.1 |
| 20260506015935 | 15 | 157 | 0.0 | 0.0 | 0.00 | 0.05 | 0.05 | 89 | 1012.2 |
| 20260506015836 | 15 | 157 | 0.0 | 0.0 | 0.00 | 0.05 | 0.05 | 89 | 1012.2 |
| 20260506014737 | 15 | 157 | 0.0 | 0.0 | 0.00 | 0.05 | 0.05 | 88 | 1012.3 |
| 20260506012751 | 15 | 157 | 0.0 | 0.0 | 0.00 | 0.05 | 0.05 | 87 | 1012.1 |
| 20260506011837 | 15 | 148 | 1.6 | 3.2 | 0.00 | 0.05 | 0.05 | 86 | 1011.9 |
| 20260506011735 | 15 | 112 | 0.0 | 1.6 | 0.00 | 0.05 | 0.05 | 86 | 1011.9 |
| 20260506011634 | 16 | 112 | 0.0 | 3.2 | 0.00 | 0.05 | 0.05 | 86 | 1011.9 |
| 20260506004833 | 16 | 225 | 0.0 | 0.0 | 0.05 | 0.05 | 0.05 | 85 | 1011.9 |
| 20260506003834 | 16 | 180 | 0.0 | 0.0 | 0.05 | 0.05 | 0.05 | 83 | 1011.7 |
| 20260506003734 | 16 | 180 | 0.0 | 0.0 | 0.05 | 0.05 | 0.05 | 82 | 1011.8 |
| 20260506002737 | 16 | 180 | 0.0 | 1.6 | 0.05 | 0.05 | 0.05 | 79 | 1011.7 |
| 20260506001834 | 17 | 180 | 0.0 | 1.6 | 0.05 | 0.05 | 0.05 | 76 | 1011.7 |
| 20260506000933 | 18 | 22 | 0.0 | 0.0 | 0.05 | 0.05 | 0.05 | 67 | 1011.5 |
| 20260506000834 | 18 | 22 | 0.0 | 0.0 | 0.05 | 0.05 | 0.05 | 66 | 1011.6 |
| 20260505235853 | 20 | 157 | 0.0 | 0.0 | 0.03 | 0.03 | 0.03 | 55 | 1011.1 |
| 20260505234936 | 21 | 337 | 8.0 | 9.7 | 0.00 | 0.00 | 0.00 | 46 | 1010.6 |
| 20260505232933 | 22 | 252 | 4.8 | 9.7 | 0.00 | 0.00 | 0.00 | 46 | 1009.3 |
| 20260505231934 | 22 | 247 | 3.2 | 8.0 | 0.00 | 0.00 | 0.00 | 45 | 1009.0 |
| 20260505231033 | 22 | 226 | 4.8 | 8.0 | 0.00 | 0.00 | 0.00 | 44 | 1008.9 |
| 20260505230951 | 22 | 229 | 11.3 | 24.1 | 0.00 | 0.00 | 0.00 | 45 | 1008.9 |
| 20260505223036 | 23 | 233 | 8.0 | 22.5 | 0.00 | 0.00 | 0.00 | 42 | 1008.1 |
| 20260505222933 | 23 | 197 | 6.4 | 12.9 | 0.00 | 0.00 | 0.00 | 43 | 1008.1 |
| 20260505221833 | 23 | 252 | 8.0 | 17.7 | 0.00 | 0.00 | 0.00 | 41 | 1007.8 |
| 20260505220834 | 24 | 224 | 12.9 | 22.5 | 0.00 | 0.00 | 0.00 | 40 | 1007.9 |
| 20260505215851 | 25 | 237 | 8.0 | 14.5 | 0.00 | 0.00 | 0.00 | 38 | 1007.5 |
| 20260505214933 | 25 | 201 | 12.9 | 27.4 | 0.00 | 0.00 | 0.00 | 39 | 1007.6 |
| 20260505214850 | 25 | 197 | 4.8 | 9.7 | 0.00 | 0.00 | 0.00 | 39 | 1007.6 |
| 20260505213835 | 25 | 227 | 8.0 | 17.7 | 0.00 | 0.00 | 0.00 | 38 | 1007.5 |
| 20260505213752 | 25 | 192 | 6.4 | 12.9 | 0.00 | 0.00 | 0.00 | 39 | 1007.3 |
| 20260505211833 | 25 | 213 | 6.4 | 11.3 | 0.00 | 0.00 | 0.00 | 37 | 1007.2 |
| 20260505210835 | 26 | 244 | 6.4 | 17.7 | 0.00 | 0.00 | 0.00 | 37 | 1006.9 |
| 20260505205835 | 26 | 222 | 12.9 | 29.0 | 0.00 | 0.00 | 0.00 | 36 | 1007.0 |
| 20260505204933 | 26 | 220 | 11.3 | 25.7 | 0.00 | 0.00 | 0.00 | 37 | 1007.0 |
| 20260505204003 | 25 | 193 | 11.3 | 17.7 | 0.00 | 0.00 | 0.00 | 37 | 1007.1 |
| 20260505204000 | 25 | 218 | 8.0 | 20.9 | 0.00 | 0.00 | 0.00 | 36 | 1007.1 |
| 20260505203533 | 25 | 205 | 8.0 | 16.1 | 0.00 | 0.00 | 0.00 | 36 | 1007.1 |
| 20260505202534 | 25 | 233 | 11.3 | 24.1 | 0.00 | 0.00 | 0.00 | 35 | 1007.2 |
| 20260505202434 | 25 | 194 | 9.7 | 29.0 | 0.00 | 0.00 | 0.00 | 36 | 1007.2 |
| 20260505201434 | 26 | 247 | 6.4 | 12.9 | 0.00 | 0.00 | 0.00 | 35 | 1007.3 |
| 20260505200533 | 26 | 244 | 12.9 | 25.7 | 0.00 | 0.00 | 0.00 | 35 | 1007.3 |
| 20260505195535 | 26 | 203 | 6.4 | 11.3 | 0.00 | 0.00 | 0.00 | 35 | 1007.3 |
| 20260505195435 | 26 | 236 | 9.7 | 22.5 | 0.00 | 0.00 | 0.00 | 36 | 1007.3 |
| 20260505194449 | 25 | 208 | 6.4 | 14.5 | 0.00 | 0.00 | 0.00 | 36 | 1007.3 |
| 20260505193535 | 25 | 223 | 9.7 | 20.9 | 0.00 | 0.00 | 0.00 | 36 | 1007.5 |
| 20260505192534 | 26 | 202 | 12.9 | 24.1 | 0.00 | 0.00 | 0.00 | 37 | 1007.4 |
| 20260505192434 | 26 | 195 | 9.7 | 20.9 | 0.00 | 0.00 | 0.00 | 37 | 1007.5 |
| 20260505191451 | 25 | 259 | 9.7 | 20.9 | 0.00 | 0.00 | 0.00 | 35 | 1007.6 |
| 20260505190535 | 25 | 230 | 9.7 | 24.1 | 0.00 | 0.00 | 0.00 | 36 | 1007.6 |
| 20260505185536 | 26 | 240 | 8.0 | 22.5 | 0.00 | 0.00 | 0.00 | 36 | 1007.6 |
| 20260505185435 | 26 | 191 | 9.7 | 27.4 | 0.00 | 0.00 | 0.00 | 35 | 1007.6 |
| 20260505184433 | 25 | 240 | 8.0 | 14.5 | 0.00 | 0.00 | 0.00 | 36 | 1007.8 |
| 20260505183433 | 26 | 236 | 6.4 | 11.3 | 0.00 | 0.00 | 0.00 | 35 | 1008.0 |
| 20260505183334 | 26 | 222 | 6.4 | 14.5 | 0.00 | 0.00 | 0.00 | 36 | 1008.1 |
| 20260505182336 | 26 | 209 | 14.5 | 24.1 | 0.00 | 0.00 | 0.00 | 35 | 1008.2 |
| 20260505181335 | 26 | 225 | 6.4 | 14.5 | 0.00 | 0.00 | 0.00 | 35 | 1008.4 |
| 20260505180433 | 25 | 241 | 9.7 | 19.3 | 0.00 | 0.00 | 0.00 | 35 | 1008.4 |
| 20260505175433 | 25 | 236 | 9.7 | 16.1 | 0.00 | 0.00 | 0.00 | 35 | 1008.6 |
| 20260505174434 | 25 | 233 | 9.7 | 20.9 | 0.00 | 0.00 | 0.00 | 35 | 1008.6 |
| 20260505174334 | 25 | 171 | 12.9 | 37.0 | 0.00 | 0.00 | 0.00 | 36 | 1008.5 |
| 20260505173334 | 26 | 192 | 11.3 | 32.2 | 0.00 | 0.00 | 0.00 | 37 | 1008.8 |
| 20260505172333 | 25 | 142 | 11.3 | 19.3 | 0.00 | 0.00 | 0.00 | 36 | 1008.7 |
| 20260505172233 | 25 | 173 | 12.9 | 29.0 | 0.00 | 0.00 | 0.00 | 36 | 1008.8 |
| 20260505171235 | 25 | 221 | 6.4 | 12.9 | 0.00 | 0.00 | 0.00 | 37 | 1008.8 |
| 20260505170234 | 25 | 162 | 9.7 | 22.5 | 0.00 | 0.00 | 0.00 | 38 | 1009.0 |
| 20260505165233 | 25 | 244 | 9.7 | 14.5 | 0.00 | 0.00 | 0.00 | 37 | 1009.1 |
| 20260505165135 | 25 | 229 | 6.4 | 17.7 | 0.00 | 0.00 | 0.00 | 38 | 1009.2 |
| 20260505164234 | 25 | 189 | 4.8 | 11.3 | 0.00 | 0.00 | 0.00 | 37 | 1009.3 |
| 20260505162432 | 25 | 175 | 9.7 | 22.5 | 0.00 | 0.00 | 0.00 | 38 | 1009.7 |
| 20260505152449 | 22 | 245 | 8.0 | 16.1 | 0.00 | 0.00 | 0.00 | 43 | 1011.2 |
| 20260505151537 | 21 | 266 | 9.7 | 16.1 | 0.00 | 0.00 | 0.00 | 45 | 1011.3 |
| 20260505151434 | 21 | 255 | 9.7 | 20.9 | 0.00 | 0.00 | 0.00 | 45 | 1011.4 |
| 20260505150434 | 21 | 220 | 11.3 | 27.4 | 0.00 | 0.00 | 0.00 | 46 | 1011.4 |
| 20260505140434 | 20 | 227 | 9.7 | 17.7 | 0.00 | 0.00 | 0.00 | 51 | 1011.7 |
| 20260505123433 | 15 | 191 | 3.2 | 8.0 | 0.00 | 0.00 | 0.00 | 63 | 1012.1 |
| 20260505122335 | 15 | 215 | 1.6 | 6.4 | 0.00 | 0.00 | 0.00 | 64 | 1012.0 |
| 20260505121335 | 15 | 184 | 1.6 | 3.2 | 0.00 | 0.00 | 0.00 | 62 | 1012.1 |
| 20260505120335 | 14 | 229 | 9.7 | 20.9 | 0.00 | 0.00 | 0.00 | 64 | 1012.1 |
| 20260505115334 | 14 | 151 | 1.6 | 3.2 | 0.00 | 0.00 | 0.00 | 65 | 1012.1 |
| 20260505114333 | 13 | 233 | 6.4 | 12.9 | 0.00 | 0.00 | 0.00 | 68 | 1012.3 |
| 20260505112334 | 12 | 236 | 0.0 | 3.2 | 0.00 | 0.00 | 0.00 | 70 | 1012.0 |
| 20260505110433 | 11 | 171 | 3.2 | 6.4 | 0.00 | 0.00 | 0.00 | 72 | 1011.9 |